Change the Weather History Date:

Wednesday, October 24, 2012

  Actual Average Record
Temperature  
Mean Temperature 45 °F 48 °F  
Max Temperature 55 °F 64 °F 89 °F (2014)
Min Temperature 35 °F 33 °F 22 °F (2005)
Degree Days  
Heating Degree Days 16    
Moisture  
Dew Point 42 °F    
Average Humidity 79    
Maximum Humidity 96    
Minimum Humidity 58    
Precipitation  
Precipitation 0.13 in 0.06 in 0.28 in (1953)
Month to date precipitation 0.45 1.45  
Year to date precipitation 8.04 20.60  
Sea Level Pressure  
Sea Level Pressure 29.82 in    
Wind  
Wind Speed 13 mph (NNE)    
Max Wind Speed 23 mph    
Max Gust Speed 31 mph    
Visibility 8 miles    
Events Rain    
T = Trace of Precipitation, MM = Missing Value Source: NWS Daily Summary

Daily Weather History Graph

Daily Weather History Graph

Search for Another Location

Airport or City:

Trip Planner

Search our weather history database for the weather conditions in past years. The results will help you decide how hot, cold, wet, or windy it might be!

Date:

Astronomy

Oct. 24, 2012 Rise Set
Actual Time 8:03 AM CDT 6:48 PM CDT
Civil Twilight 7:35 AM CDT 7:16 PM CDT
Nautical Twilight 7:03 AM CDT 7:48 PM CDT
Astronomical Twilight 6:32 AM CDT 8:19 PM CDT
Moon 4:06 PM CDT (10/24) 3:00 AM CDT (10/24)
Length of Visible Light 11h 41m
Length of Day
10h 45m
Waxing Gibbous, 76% of the Moon is Illuminated
Oct 24
Waxing Gibbous
Oct 29
Full
Nov 6
Last Quarter
Nov 13
New
Nov 20
First Quarter

Hourly Weather History & Observations

Time (CDT) Temp. Windchill Dew Point Humidity Pressure Visibility Wind Dir Wind Speed Gust Speed Precip Events Conditions
12:53 AM 48.0 °F - 46.9 °F 96% 29.75 in 4.0 mi North 11.5 mph - N/A   Clear
1:53 AM 48.9 °F - 46.9 °F 93% 29.75 in 5.0 mi North 9.2 mph - N/A   Clear
2:53 AM 48.0 °F - 45.0 °F 89% 29.76 in 7.0 mi NE 12.7 mph - N/A   Clear
3:53 AM 46.0 °F 41.4 °F 43.0 °F 89% 29.76 in 8.0 mi NNE 9.2 mph - N/A   Clear
4:23 AM 44.6 °F 40.7 °F 42.8 °F 93% 29.79 in 7.0 mi North 6.9 mph - N/A   Mostly Cloudy
4:32 AM 46.4 °F 42.9 °F 44.6 °F 93% 29.80 in 8.0 mi North 6.9 mph - N/A   Mostly Cloudy
4:53 AM 46.9 °F - 44.1 °F 90% 29.78 in 8.0 mi North 10.4 mph - N/A   Overcast
5:53 AM 46.9 °F - 44.1 °F 90% 29.79 in 9.0 mi North 16.1 mph - N/A   Overcast
6:53 AM 46.9 °F - 43.0 °F 86% 29.81 in 8.0 mi NNE 19.6 mph - N/A   Overcast
7:41 AM 46.4 °F 40.1 °F 44.6 °F 93% 29.83 in 6.0 mi North 15.0 mph - N/A   Overcast
7:53 AM 46.9 °F - 44.1 °F 90% 29.84 in 6.0 mi North 12.7 mph - N/A   Overcast
8:53 AM 48.9 °F - 45.0 °F 86% 29.86 in 6.0 mi NNE 9.2 mph - N/A   Overcast
9:04 AM 48.2 °F - 44.6 °F 87% 29.86 in 6.0 mi NNE 8.1 mph - N/A   Overcast
9:53 AM 50.0 °F - 45.0 °F 83% 29.86 in 8.0 mi NE 10.4 mph - N/A   Overcast
10:53 AM 51.1 °F - 44.1 °F 77% 29.86 in 9.0 mi NE 15.0 mph - N/A   Overcast
11:03 AM 51.8 °F - 44.6 °F 76% 29.86 in 9.0 mi NE 12.7 mph - N/A   Overcast
11:49 AM 50.0 °F - 42.8 °F 76% 29.86 in 9.0 mi NNE 15.0 mph - N/A   Overcast
11:53 AM 50.0 °F - 43.0 °F 77% 29.87 in 10.0 mi NNE 15.0 mph - N/A   Overcast
12:53 PM 50.0 °F - 43.0 °F 77% 29.85 in 10.0 mi NNE 13.8 mph - N/A   Overcast
1:50 PM 51.8 °F - 44.6 °F 76% 29.83 in 10.0 mi NNE 12.7 mph - N/A   Overcast
1:53 PM 51.8 °F - 44.6 °F 76% 29.83 in 10.0 mi NNE 13.8 mph - N/A   Overcast
2:53 PM 54.0 °F - 42.1 °F 64% 29.79 in 10.0 mi ENE 13.8 mph - N/A   Overcast
3:53 PM 55.4 °F - 42.8 °F 63% 29.78 in 10.0 mi ENE 12.7 mph - N/A   Overcast
4:53 PM 54.0 °F - 43.0 °F 66% 29.79 in 9.0 mi ENE 9.2 mph - N/A   Overcast
5:53 PM 54.0 °F - 44.1 °F 69% 29.77 in 9.0 mi East 6.9 mph - N/A   Overcast
6:53 PM 53.1 °F - 44.1 °F 71% 29.76 in 10.0 mi ENE 8.1 mph - N/A   Overcast
7:53 PM 53.1 °F - 42.1 °F 66% 29.80 in 10.0 mi NE 17.3 mph 21.9 mph N/A   Overcast
8:53 PM 50.0 °F - 39.0 °F 66% 29.81 in 10.0 mi NE 23.0 mph 27.6 mph N/A   Overcast
9:53 PM 48.0 °F - 36.0 °F 63% 29.83 in 10.0 mi NNE 21.9 mph 31.1 mph N/A   Overcast
10:44 PM 46.4 °F 38.3 °F 33.8 °F 62% 29.86 in 10.0 mi North 23.0 mph 28.8 mph N/A   Overcast
10:53 PM 46.0 °F 38.5 °F 32.0 °F 58% 29.87 in 10.0 mi NNE 19.6 mph 28.8 mph N/A   Overcast
11:42 PM 42.8 °F 33.5 °F 33.8 °F 70% 29.88 in 9.0 mi North 23.0 mph 29.9 mph N/A Rain Light Rain
11:53 PM 39.9 °F 30.2 °F 35.1 °F 83% 29.90 in 5.0 mi North 20.7 mph 28.8 mph 0.02 in Rain Rain